When you browse on this site, cookies collect data to enhance your experience and personalize the content and advertising you see.
Visit our Privacy Policy to learn more. By continuing to use the site, you agree to this use of cookies and data.
  • en Belgique
  • Liste des pays
  • À 7 jours
  • Température de l'eau
  • Carte météo
  • Widgets météo
  • user-avatar
    Se connecter

    Météo par heure à Cairns

    Ce jour, 7 Décembre, Samedi

    Heure Température Précipitation Vent Pression Humidité
    00:00 +27°C° 0.1 mm 2 m/s 758 mmHg 89%
    01:00 +27°C° 0.1 mm 2 m/s 758 mmHg 88%
    02:00 +26°C° 0 mm 2 m/s 758 mmHg 90%
    03:00 +26°C° 0 mm 2 m/s 757 mmHg 91%
    04:00 +26°C° 0 mm 2 m/s 757 mmHg 93%
    05:00 +27°C° 0 mm 2 m/s 758 mmHg 88%
    06:00 +27°C° 0 mm 2 m/s 758 mmHg 84%
    07:00 +28°C° 0 mm 1 m/s 759 mmHg 80%
    08:00 +31°C° 0 mm 1 m/s 759 mmHg 67%
    09:00 +35°C° 0 mm 2 m/s 759 mmHg 54%
    10:00 +37°C° 0 mm 2 m/s 758 mmHg 46%
    11:00 +38°C° 0 mm 2 m/s 758 mmHg 44%
    12:00 +38°C° 0 mm 3 m/s 757 mmHg 43%
    13:00 +39°C° 0 mm 3 m/s 757 mmHg 42%
    14:00 +37°C° 0.1 mm 3 m/s 757 mmHg 47%
    15:00 +35°C° 0.1 mm 2 m/s 756 mmHg 52%
    16:00 +34°C° 0 mm 2 m/s 756 mmHg 58%
    17:00 +31°C° 0 mm 2 m/s 756 mmHg 64%
    18:00 +29°C° 0 mm 2 m/s 757 mmHg 70%
    19:00 +28°C° 0 mm 2 m/s 758 mmHg 75%
    20:00 +27°C° 0 mm 2 m/s 758 mmHg 79%
    21:00 +26°C° 0 mm 2 m/s 758 mmHg 83%
    22:00 +25°C° 0 mm 1 m/s 759 mmHg 87%
    23:00 +25°C° 0 mm 1 m/s 758 mmHg 89%

    Demain, 8 Décembre, Dimanche

    Heure Température Précipitation Vent Pression Humidité
    00:00 +24°C° 0 mm 1 m/s 758 mmHg 91%
    01:00 +24°C° 0 mm 1 m/s 758 mmHg 92%
    02:00 +24°C° 0 mm 1 m/s 758 mmHg 93%
    03:00 +23°C° 0 mm 1 m/s 758 mmHg 95%
    04:00 +23°C° 0 mm 1 m/s 758 mmHg 96%
    05:00 +24°C° 0 mm 1 m/s 758 mmHg 90%
    06:00 +26°C° 0 mm 1 m/s 759 mmHg 83%
    07:00 +27°C° 0 mm 1 m/s 759 mmHg 77%
    08:00 +30°C° 0 mm 1 m/s 759 mmHg 61%
    09:00 +34°C° 0 mm 2 m/s 759 mmHg 46%
    10:00 +37°C° 0 mm 2 m/s 759 mmHg 30%
    11:00 +37°C° 0 mm 2 m/s 759 mmHg 29%
    12:00 +38°C° 0 mm 3 m/s 758 mmHg 27%
    13:00 +38°C° 0 mm 4 m/s 758 mmHg 26%
    14:00 +37°C° 0 mm 4 m/s 757 mmHg 29%
    15:00 +36°C° 0 mm 4 m/s 757 mmHg 32%
    16:00 +35°C° 0 mm 4 m/s 757 mmHg 35%
    17:00 +33°C° 0 mm 4 m/s 757 mmHg 47%
    18:00 +29°C° 0 mm 4 m/s 758 mmHg 59%
    19:00 +27°C° 0 mm 4 m/s 758 mmHg 71%
    20:00 +26°C° 0 mm 4 m/s 759 mmHg 77%
    21:00 +25°C° 0 mm 4 m/s 760 mmHg 83%
    22:00 +23°C° 0 mm 4 m/s 760 mmHg 88%
    23:00 +23°C° 0 mm 4 m/s 760 mmHg 89%

    Après-demain, 9 Décembre, Lundi

    Heure Température Précipitation Vent Pression Humidité
    00:00 +23°C° 0 mm 4 m/s 759 mmHg 91%
    01:00 +22°C° 0 mm 4 m/s 759 mmHg 92%
    02:00 +22°C° 0 mm 4 m/s 759 mmHg 92%
    03:00 +22°C° 0 mm 4 m/s 759 mmHg 91%
    04:00 +22°C° 0 mm 4 m/s 759 mmHg 91%
    05:00 +23°C° 0 mm 4 m/s 759 mmHg 85%
    06:00 +25°C° 0 mm 4 m/s 759 mmHg 78%
    07:00 +26°C° 0 mm 4 m/s 760 mmHg 72%
    08:00 +28°C° 0 mm 4 m/s 760 mmHg 61%
    09:00 +32°C° 0 mm 5 m/s 760 mmHg 50%
    10:00 +34°C° 0 mm 5 m/s 760 mmHg 39%
    11:00 +35°C° 0 mm 5 m/s 759 mmHg 40%
    12:00 +35°C° 0 mm 5 m/s 759 mmHg 40%
    13:00 +36°C° 0 mm 6 m/s 758 mmHg 40%
    14:00 +35°C° 0 mm 6 m/s 758 mmHg 44%
    15:00 +34°C° 0 mm 6 m/s 758 mmHg 48%
    16:00 +34°C° 0 mm 6 m/s 757 mmHg 52%
    17:00 +32°C° 0 mm 6 m/s 758 mmHg 60%
    18:00 +29°C° 0 mm 5 m/s 758 mmHg 68%
    19:00 +27°C° 0 mm 5 m/s 758 mmHg 76%
    20:00 +26°C° 0 mm 5 m/s 758 mmHg 82%
    21:00 +26°C° 0 mm 5 m/s 759 mmHg 88%
    22:00 +25°C° 0 mm 4 m/s 759 mmHg 93%
    23:00 +25°C° 0 mm 4 m/s 758 mmHg 94%

    10 Décembre, Mardi

    Heure Température Précipitation Vent Pression Humidité
    00:00 +25°C° 0 mm 4 m/s 758 mmHg 95%
    01:00 +25°C° 0 mm 4 m/s 757 mmHg 95%
    02:00 +25°C° 0.2 mm 4 m/s 757 mmHg 95%
    03:00 +25°C° 0.2 mm 4 m/s 756 mmHg 95%
    04:00 +25°C° 0.2 mm 4 m/s 756 mmHg 95%
    05:00 +26°C° 0.8 mm 4 m/s 756 mmHg 91%
    06:00 +27°C° 0.8 mm 4 m/s 757 mmHg 86%
    07:00 +28°C° 0.8 mm 4 m/s 757 mmHg 82%
    08:00 +29°C° 1.1 mm 5 m/s 757 mmHg 76%
    09:00 +32°C° 1.1 mm 5 m/s 757 mmHg 70%
    10:00 +33°C° 1.1 mm 6 m/s 757 mmHg 64%
    11:00 +34°C° 0.9 mm 6 m/s 757 mmHg 64%
    12:00 +34°C° 0.9 mm 6 m/s 757 mmHg 64%
    13:00 +34°C° 0.9 mm 6 m/s 756 mmHg 64%
    14:00 +34°C° 0.6 mm 6 m/s 756 mmHg 65%
    15:00 +33°C° 0.6 mm 6 m/s 755 mmHg 66%
    16:00 +33°C° 0.6 mm 6 m/s 755 mmHg 67%
    17:00 +30°C° 0.3 mm 6 m/s 755 mmHg 73%
    18:00 +29°C° 0.3 mm 6 m/s 756 mmHg 80%
    19:00 +27°C° 0.3 mm 5 m/s 756 mmHg 87%
    20:00 +27°C° 0.4 mm 5 m/s 756 mmHg 90%
    21:00 +27°C° 0.4 mm 5 m/s 757 mmHg 93%
    22:00 +26°C° 0.4 mm 5 m/s 757 mmHg 95%
    23:00 +26°C° 0.4 mm 5 m/s 756 mmHg 95%

    11 Décembre, Mercredi

    Heure Température Précipitation Vent Pression Humidité
    00:00 +26°C° 0.4 mm 5 m/s 756 mmHg 95%
    01:00 +26°C° 0.4 mm 4 m/s 756 mmHg 95%
    02:00 +26°C° 0.2 mm 4 m/s 755 mmHg 95%
    03:00 +26°C° 0.2 mm 4 m/s 755 mmHg 96%
    04:00 +26°C° 0.2 mm 4 m/s 755 mmHg 97%
    05:00 +26°C° 0.1 mm 4 m/s 755 mmHg 94%
    06:00 +27°C° 0.1 mm 4 m/s 755 mmHg 90%
    07:00 +28°C° 0.1 mm 5 m/s 756 mmHg 87%
    08:00 +29°C° 0.1 mm 5 m/s 756 mmHg 79%
    09:00 +32°C° 0.1 mm 5 m/s 756 mmHg 72%
    10:00 +33°C° 0.1 mm 6 m/s 756 mmHg 64%
    11:00 +34°C° 0.1 mm 6 m/s 755 mmHg 62%
    12:00 +34°C° 0.1 mm 6 m/s 755 mmHg 61%
    13:00 +35°C° 0.1 mm 6 m/s 754 mmHg 59%
    14:00 +35°C° 0.3 mm 6 m/s 754 mmHg 60%
    15:00 +34°C° 0.3 mm 6 m/s 754 mmHg 61%
    16:00 +34°C° 0.3 mm 6 m/s 753 mmHg 62%
    17:00 +33°C° 0.1 mm 6 m/s 754 mmHg 69%
    18:00 +30°C° 0.1 mm 5 m/s 754 mmHg 76%
    19:00 +28°C° 0.1 mm 5 m/s 755 mmHg 83%
    20:00 +28°C° 0.1 mm 5 m/s 755 mmHg 87%
    21:00 +27°C° 0.1 mm 5 m/s 756 mmHg 90%
    22:00 +27°C° 0.1 mm 4 m/s 756 mmHg 93%
    23:00 +27°C° 0.1 mm 4 m/s 755 mmHg 94%

    12 Décembre, Jeudi

    Heure Température Précipitation Vent Pression Humidité
    00:00 +26°C° 0.1 mm 4 m/s 755 mmHg 95%
    01:00 +26°C° 0.1 mm 4 m/s 755 mmHg 97%
    02:00 +26°C° 0.1 mm 4 m/s 754 mmHg 96%
    03:00 +26°C° 0.1 mm 4 m/s 754 mmHg 96%
    04:00 +26°C° 0.1 mm 4 m/s 754 mmHg 95%
    05:00 +27°C° 0.1 mm 4 m/s 754 mmHg 92%
    06:00 +27°C° 0.1 mm 4 m/s 755 mmHg 88%
    07:00 +28°C° 0.1 mm 4 m/s 756 mmHg 85%
    08:00 +30°C° 0.1 mm 5 m/s 755 mmHg 76%
    09:00 +33°C° 0.1 mm 5 m/s 755 mmHg 67%
    10:00 +35°C° 0.1 mm 5 m/s 755 mmHg 58%
    11:00 +36°C° 0 mm 6 m/s 755 mmHg 55%
    12:00 +36°C° 0 mm 6 m/s 755 mmHg 53%
    13:00 +38°C° 0 mm 6 m/s 754 mmHg 50%
    14:00 +36°C° 0 mm 6 m/s 754 mmHg 52%
    15:00 +36°C° 0 mm 6 m/s 753 mmHg 55%
    16:00 +35°C° 0 mm 6 m/s 753 mmHg 57%
    17:00 +33°C° 0 mm 5 m/s 753 mmHg 66%
    18:00 +32°C° 0 mm 5 m/s 754 mmHg 74%
    19:00 +29°C° 0 mm 4 m/s 754 mmHg 83%
    20:00 +28°C° 0 mm 4 m/s 755 mmHg 87%
    21:00 +27°C° 0 mm 4 m/s 755 mmHg 92%
    22:00 +26°C° 0 mm 4 m/s 756 mmHg 96%
    23:00 +26°C° 0 mm 4 m/s 755 mmHg 97%
    Voir plus